Total_Precipitation_Accumulation
0.06 0.05 0.04 0.03 0.03 0.03 0.03 0.03 0.02 0.01 0.01 0.02 0.02 0.02 0.02 0.02 0.02 0.01 0.01 0.01 0.01 0.01 0.01 0.01 0.02 0.02 0.01 0.02 0.01 0.00 0.00 0.00 0.00 0.00 0.00 0.00 0.00 0.00 0.00 0.00 0.00 0.00 0.00 0.00 0.00 0.00 0.01 0.01 0.01 0.00 0.01 0.00 0.00 0.03 0.09 0.07 0.18 0.64 2.06 1.99 2.97 2.09 2.20 1.88 2.20 1.29 3.08 3.45 2.32 2.58 2.20 1.53 0.93 0.81 1.56 1.40 1.89 1.50 0.76 0.76 0.18 0.24 0.11 0.06 0.03 0.05 0.03 0.04
0.04 0.05 0.03 0.02 0.01 0.02 0.02 0.02 0.01 0.02 0.01 0.02 0.04 0.04 0.03 0.02 0.02 0.01 0.01 0.01 0.01 0.01 0.01 0.02 0.01 0.01 0.02 0.01 0.00 0.00 0.01 0.00 0.00 0.00 0.00 0.00 0.00 0.00 0.00 0.00 0.00 0.00 0.00 0.00 0.00 0.00 0.00 0.01 0.00 0.00 0.00 0.02 0.00 0.10 0.05 0.16 0.51 0.89 1.24 2.24 3.02 1.14 1.75 1.18 1.06 1.34 1.74 2.89 2.72 2.52 1.29 2.02 1.29 1.08 0.79 1.10 0.94 0.77 0.79 0.50 0.34 0.21 0.07 0.05 0.04 0.04 0.03 0.04
0.04 0.03 0.02 0.01 0.01 0.02 0.02 0.01 0.01 0.01 0.02 0.02 0.03 0.03 0.02 0.02 0.01 0.01 0.01 0.01 0.01 0.01 0.02 0.02 0.02 0.01 0.01 0.01 0.00 0.00 0.01 0.00 0.00 0.00 0.00 0.00 0.00 0.00 0.00 0.00 0.00 0.00 0.00 0.00 0.00 0.00 0.00 0.00 0.00 0.00 0.00 0.01 0.00 0.11 0.00 0.39 0.07 0.64 0.54 1.86 2.03 0.87 0.97 0.70 1.19 1.59 1.23 1.76 1.76 1.38 1.98 2.17 1.78 1.90 1.21 1.61 0.64 0.99 0.61 0.34 0.21 0.11 0.09 0.09 0.06 0.03 0.03 0.03
0.03 0.03 0.01 0.01 0.02 0.02 0.02 0.02 0.02 0.02 0.02 0.03 0.03 0.02 0.02 0.01 0.01 0.01 0.01 0.01 0.01 0.01 0.01 0.02 0.01 0.01 0.01 0.01 0.00 0.01 0.00 0.00 0.00 0.00 0.00 0.00 0.00 0.00 0.00 0.00 0.00 0.00 0.00 0.00 0.00 0.00 0.00 0.00 0.00 0.00 0.00 0.00 0.01 0.01 0.04 0.14 0.10 0.58 0.50 1.04 1.35 0.85 0.99 0.93 1.00 2.20 1.86 1.59 1.81 1.82 1.89 2.25 1.65 2.00 1.70 1.14 1.13 1.53 1.31 0.37 0.24 0.09 0.11 0.04 0.02 0.04 0.03 0.04
0.03 0.01 0.01 0.01 0.02 0.02 0.02 0.02 0.02 0.03 0.03 0.03 0.02 0.02 0.01 0.01 0.01 0.01 0.01 0.00 0.00 0.00 0.01 0.01 0.02 0.01 0.00 0.00 0.00 0.00 0.00 0.00 0.00 0.00 0.00 0.00 0.00 0.00 0.00 0.00 0.00 0.00 0.00 0.00 0.00 0.00 0.00 0.00 0.00 0.00 0.00 0.01 0.01 0.01 0.05 0.01 0.02 0.14 0.56 0.82 0.34 0.62 0.80 0.72 0.91 1.93 2.07 2.38 2.31 2.35 2.05 2.80 1.79 1.45 2.00 0.74 1.51 1.77 1.23 0.88 0.55 0.22 0.03 0.02 0.01 0.02 0.02 0.02
0.02 0.01 0.01 0.01 0.02 0.01 0.02 0.01 0.02 0.03 0.02 0.02 0.02 0.01 0.01 0.01 0.01 0.01 0.00 0.00 0.01 0.01 0.01 0.01 0.02 0.01 0.01 0.00 0.00 0.01 0.00 0.00 0.00 0.00 0.00 0.00 0.00 0.00 0.00 0.00 0.00 0.00 0.00 0.00 0.00 0.00 0.00 0.00 0.00 0.00 0.00 0.00 0.01 0.05 0.03 0.02 0.18 0.24 0.28 0.16 0.21 0.24 1.25 0.66 0.93 1.10 1.33 1.85 3.13 3.01 2.39 1.37 1.44 1.76 1.20 0.69 2.42 1.66 1.10 0.48 0.48 0.20 0.04 0.03 0.02 0.02 0.02 0.01
0.02 0.01 0.02 0.01 0.01 0.01 0.01 0.01 0.01 0.01 0.02 0.01 0.02 0.01 0.01 0.01 0.00 0.00 0.00 0.01 0.01 0.01 0.01 0.01 0.01 0.02 0.00 0.00 0.00 0.00 0.00 0.00 0.00 0.00 0.00 0.00 0.00 0.00 0.00 0.00 0.00 0.00 0.00 0.00 0.00 0.00 0.00 0.00 0.00 0.00 0.00 0.01 0.00 0.02 0.00 0.02 0.16 0.16 0.94 0.18 0.25 0.43 0.47 0.57 0.84 1.17 1.48 2.20 3.44 2.72 1.34 2.31 1.67 1.95 1.67 1.75 1.15 1.53 0.73 0.56 0.24 0.23 0.13 0.02 0.02 0.03 0.02 0.01
0.03 0.02 0.02 0.02 0.02 0.01 0.01 0.01 0.01 0.02 0.01 0.02 0.02 0.02 0.01 0.01 0.01 0.01 0.01 0.01 0.01 0.01 0.01 0.01 0.01 0.00 0.00 0.00 0.00 0.00 0.00 0.00 0.00 0.00 0.00 0.00 0.00 0.00 0.00 0.00 0.00 0.00 0.00 0.00 0.00 0.00 0.00 0.00 0.00 0.00 0.00 0.05 0.02 0.01 0.01 0.01 0.01 0.14 0.33 0.13 0.23 0.23 0.68 0.45 0.58 1.32 1.40 2.49 2.72 2.19 1.94 2.54 2.01 2.40 1.52 1.60 0.89 0.45 0.70 0.33 0.26 0.16 0.11 0.01 0.03 0.02 0.02 0.04
0.02 0.02 0.01 0.01 0.01 0.02 0.02 0.01 0.01 0.01 0.01 0.01 0.01 0.01 0.01 0.01 0.01 0.01 0.01 0.01 0.01 0.01 0.01 0.02 0.00 0.00 0.01 0.00 0.00 0.00 0.00 0.00 0.00 0.00 0.00 0.00 0.00 0.00 0.00 0.00 0.00 0.00 0.00 0.00 0.00 0.00 0.00 0.00 0.00 0.00 0.00 0.02 0.00 0.01 0.00 0.01 0.07 0.06 0.08 0.32 0.45 0.22 0.36 0.99 0.76 1.31 1.63 2.04 2.77 2.65 3.65 2.75 1.75 2.30 1.72 1.87 1.12 0.57 0.36 0.32 0.21 0.08 0.07 0.02 0.02 0.01 0.01 0.02
0.02 0.02 0.01 0.01 0.01 0.02 0.02 0.01 0.01 0.01 0.01 0.01 0.01 0.01 0.01 0.01 0.01 0.01 0.01 0.01 0.00 0.00 0.01 0.01 0.00 0.00 0.00 0.00 0.00 0.00 0.00 0.00 0.00 0.00 0.00 0.00 0.00 0.00 0.00 0.00 0.00 0.00 0.00 0.00 0.00 0.00 0.00 0.00 0.00 0.00 0.00 0.00 0.00 0.01 0.00 0.00 0.07 0.00 0.05 0.12 1.00 0.37 0.25 0.64 0.68 1.51 1.65 1.97 2.37 3.42 2.13 3.03 1.75 1.15 1.67 1.39 0.93 0.60 0.48 0.22 0.37 0.26 0.05 0.02 0.00 0.01 0.02 0.01
0.02 0.01 0.01 0.01 0.01 0.01 0.01 0.02 0.02 0.01 0.01 0.01 0.01 0.01 0.01 0.01 0.01 0.01 0.01 0.00 0.00 0.00 0.01 0.01 0.00 0.01 0.00 0.00 0.00 0.00 0.00 0.00 0.00 0.00 0.00 0.00 0.00 0.00 0.00 0.00 0.00 0.00 0.00 0.00 0.00 0.00 0.00 0.00 0.00 0.00 0.00 0.03 0.00 0.00 0.00 0.01 0.14 0.02 0.01 0.21 0.56 0.51 0.28 0.65 0.90 0.72 1.15 1.68 2.87 4.21 3.03 2.65 2.41 1.55 1.91 1.45 0.59 0.52 0.27 0.11 0.15 0.08 0.08 0.03 0.03 0.01 0.00 0.01
0.01 0.01 0.01 0.01 0.01 0.01 0.01 0.01 0.01 0.01 0.01 0.01 0.01 0.01 0.01 0.01 0.01 0.01 0.00 0.00 0.00 0.01 0.00 0.00 0.00 0.00 0.00 0.00 0.00 0.00 0.00 0.00 0.00 0.00 0.00 0.00 0.00 0.00 0.00 0.00 0.00 0.00 0.00 0.00 0.00 0.00 0.00 0.00 0.00 0.00 0.00 0.00 0.08 0.00 0.00 0.00 0.03 0.00 0.12 0.43 0.86 1.00 0.83 0.81 1.05 0.89 1.07 1.13 2.81 1.98 3.10 3.88 2.16 1.71 1.63 1.22 1.05 0.67 0.26 0.08 0.08 0.06 0.02 0.00 0.00 0.01 0.00 0.01
0.01 0.01 0.01 0.01 0.01 0.01 0.01 0.01 0.01 0.01 0.01 0.01 0.01 0.01 0.01 0.01 0.01 0.00 0.00 0.00 0.00 0.01 0.01 0.01 0.01 0.00 0.00 0.00 0.00 0.00 0.00 0.00 0.00 0.00 0.00 0.00 0.00 0.00 0.00 0.00 0.00 0.00 0.00 0.00 0.00 0.00 0.00 0.00 0.00 0.00 0.00 0.00 0.00 0.01 0.05 0.00 0.02 0.00 0.01 1.13 0.43 1.34 1.22 1.05 1.73 1.92 0.66 1.11 0.89 2.15 2.81 1.84 2.23 2.08 1.85 1.72 0.97 0.54 0.34 0.09 0.13 0.09 0.06 0.03 0.00 0.00 0.00 0.01
0.01 0.00 0.01 0.01 0.01 0.01 0.01 0.01 0.01 0.01 0.01 0.01 0.01 0.01 0.01 0.01 0.00 0.00 0.00 0.00 0.00 0.01 0.00 0.00 0.00 0.00 0.00 0.00 0.00 0.00 0.00 0.00 0.00 0.00 0.00 0.00 0.00 0.00 0.00 0.00 0.00 0.00 0.00 0.00 0.00 0.00 0.00 0.00 0.00 0.00 0.00 0.00 0.00 0.00 0.00 0.01 0.00 0.12 0.02 0.08 0.59 0.32 1.63 1.27 1.94 1.31 1.21 0.70 1.34 2.10 2.71 2.73 2.07 2.08 1.66 1.50 0.97 0.59 0.44 0.32 0.11 0.18 0.06 0.02 0.00 0.00 0.00 0.00
0.01 0.01 0.01 0.01 0.01 0.01 0.01 0.01 0.01 0.01 0.01 0.01 0.01 0.01 0.01 0.00 0.00 0.00 0.00 0.00 0.00 0.00 0.00 0.01 0.00 0.00 0.00 0.00 0.00 0.00 0.00 0.00 0.00 0.00 0.00 0.00 0.00 0.00 0.00 0.00 0.00 0.00 0.00 0.00 0.00 0.00 0.00 0.00 0.00 0.00 0.00 0.00 0.00 0.00 0.00 0.01 0.00 0.02 0.05 0.18 0.16 0.33 1.24 1.78 1.26 1.67 0.80 0.56 1.19 1.10 2.20 2.29 2.12 1.91 1.66 0.82 0.76 0.81 0.96 0.53 0.15 0.20 0.18 0.03 0.01 0.01 0.02 0.01
0.01 0.00 0.00 0.01 0.01 0.01 0.01 0.01 0.01 0.01 0.01 0.01 0.01 0.01 0.00 0.00 0.00 0.00 0.00 0.00 0.00 0.00 0.01 0.00 0.00 0.00 0.00 0.00 0.00 0.00 0.00 0.00 0.00 0.00 0.00 0.00 0.00 0.00 0.00 0.00 0.00 0.00 0.00 0.00 0.00 0.00 0.00 0.00 0.00 0.00 0.00 0.00 0.00 0.00 0.01 0.00 0.03 0.06 0.07 0.27 0.22 0.21 0.79 0.99 0.83 1.28 1.11 0.67 0.89 1.95 2.26 1.54 2.24 1.25 1.48 1.15 1.17 1.03 0.63 0.84 0.75 0.19 0.43 0.14 0.05 0.01 0.02 0.01
0.00 0.00 0.00 0.01 0.01 0.01 0.01 0.00 0.01 0.01 0.01 0.01 0.00 0.00 0.00 0.00 0.00 0.00 0.00 0.00 0.01 0.00 0.00 0.00 0.00 0.00 0.00 0.00 0.00 0.00 0.00 0.00 0.00 0.00 0.00 0.00 0.00 0.00 0.00 0.00 0.00 0.00 0.00 0.00 0.00 0.00 0.00 0.00 0.00 0.00 0.00 0.00 0.00 0.01 0.01 0.01 0.02 0.05 0.05 0.07 0.06 0.29 0.34 0.98 0.63 0.61 1.16 0.79 0.85 0.73 1.61 1.69 1.34 1.12 1.79 1.09 1.01 1.00 1.44 0.78 0.39 0.53 0.29 0.07 0.03 0.02 0.02 0.02
0.00 0.00 0.00 0.01 0.01 0.01 0.01 0.00 0.01 0.01 0.01 0.00 0.00 0.00 0.00 0.00 0.00 0.00 0.00 0.00 0.00 0.00 0.00 0.00 0.00 0.00 0.00 0.00 0.00 0.00 0.00 0.00 0.00 0.00 0.00 0.00 0.00 0.00 0.00 0.00 0.00 0.00 0.00 0.00 0.00 0.00 0.00 0.00 0.00 0.00 0.00 0.00 0.00 0.01 0.01 0.04 0.01 0.03 0.01 0.13 0.22 0.24 0.40 0.70 0.55 0.72 0.69 0.69 1.14 1.20 1.25 1.13 1.11 1.13 1.19 0.96 1.35 1.24 0.63 0.55 0.54 0.17 0.60 0.22 0.01 0.08 0.03 0.02
0.01 0.00 0.00 0.01 0.01 0.01 0.00 0.00 0.00 0.01 0.01 0.00 0.00 0.00 0.00 0.00 0.00 0.00 0.00 0.00 0.00 0.00 0.00 0.00 0.00 0.00 0.00 0.00 0.00 0.00 0.00 0.00 0.00 0.00 0.00 0.00 0.00 0.00 0.00 0.00 0.00 0.00 0.00 0.00 0.00 0.00 0.00 0.00 0.00 0.00 0.00 0.00 0.00 0.00 0.00 0.01 0.00 0.01 0.01 0.04 0.10 0.39 0.81 0.43 0.58 0.31 0.16 0.71 1.14 0.92 1.70 1.91 0.97 0.86 1.11 1.08 1.24 0.90 1.20 1.34 0.85 0.66 0.57 0.44 0.32 0.22 0.04 0.01
0.01 0.01 0.00 0.00 0.00 0.01 0.00 0.00 0.00 0.01 0.01 0.00 0.00 0.00 0.00 0.00 0.00 0.00 0.00 0.00 0.00 0.00 0.00 0.00 0.00 0.00 0.00 0.00 0.00 0.00 0.00 0.00 0.00 0.00 0.00 0.00 0.00 0.00 0.00 0.00 0.00 0.00 0.00 0.00 0.00 0.00 0.00 0.00 0.00 0.00 0.00 0.00 0.00 0.00 0.00 0.00 0.00 0.00 0.01 0.01 0.05 0.23 0.21 0.15 0.30 0.41 1.08 0.86 1.15 1.83 2.90 2.01 1.35 0.82 0.66 0.39 0.77 0.76 0.92 0.97 0.58 0.80 0.54 0.32 0.46 0.15 0.02 0.05
0.00 0.00 0.00 0.00 0.00 0.00 0.00 0.00 0.00 0.00 0.03 0.00 0.00 0.00 0.00 0.00 0.00 0.00 0.00 0.00 0.00 0.00 0.00 0.00 0.00 0.00 0.00 0.00 0.00 0.00 0.00 0.00 0.00 0.00 0.00 0.00 0.00 0.00 0.00 0.00 0.00 0.00 0.00 0.00 0.00 0.00 0.00 0.00 0.00 0.00 0.00 0.00 0.00 0.00 0.00 0.00 0.00 0.00 0.00 0.02 0.02 0.01 0.14 0.03 0.26 0.10 0.72 0.77 1.59 1.72 1.65 1.49 1.66 1.81 1.24 0.83 0.72 0.89 0.81 1.06 0.75 0.32 0.43 0.44 0.15 0.28 0.45 0.08
0.00 0.00 0.00 0.00 0.00 0.00 0.00 0.00 0.00 0.01 0.01 0.00 0.00 0.00 0.00 0.00 0.00 0.00 0.00 0.00 0.00 0.00 0.00 0.00 0.00 0.00 0.00 0.00 0.00 0.00 0.00 0.00 0.00 0.00 0.00 0.00 0.00 0.00 0.00 0.00 0.00 0.00 0.00 0.00 0.00 0.00 0.00 0.00 0.00 0.00 0.00 0.00 0.00 0.00 0.00 0.00 0.00 0.00 0.01 0.02 0.00 0.05 0.01 0.03 0.19 0.04 0.69 0.39 0.90 1.10 1.51 1.31 1.59 1.64 1.95 1.25 0.50 0.65 0.75 0.77 0.59 0.57 0.76 0.92 0.55 0.35 0.23 0.24
0.01 0.00 0.00 0.00 0.00 0.00 0.00 0.00 0.00 0.02 0.00 0.00 0.00 0.00 0.00 0.00 0.00 0.00 0.00 0.00 0.00 0.00 0.00 0.00 0.00 0.00 0.00 0.00 0.00 0.00 0.00 0.00 0.00 0.00 0.00 0.00 0.00 0.00 0.00 0.00 0.00 0.00 0.00 0.00 0.00 0.00 0.00 0.00 0.00 0.00 0.00 0.00 0.00 0.00 0.00 0.00 0.00 0.00 0.01 0.00 0.01 0.02 0.03 0.24 0.34 0.21 0.75 0.46 1.54 0.96 1.34 2.16 2.82 1.85 1.96 1.71 1.47 1.54 1.46 1.92 2.54 1.19 1.45 0.74 0.50 0.39 0.25 0.05
0.01 0.00 0.00 0.00 0.00 0.00 0.00 0.00 0.01 0.01 0.00 0.00 0.00 0.00 0.00 0.00 0.00 0.00 0.00 0.00 0.00 0.00 0.00 0.00 0.00 0.00 0.00 0.00 0.00 0.00 0.00 0.00 0.00 0.00 0.00 0.00 0.00 0.00 0.00 0.00 0.00 0.00 0.00 0.00 0.00 0.00 0.00 0.00 0.00 0.00 0.00 0.00 0.00 0.00 0.00 0.00 0.04 0.00 0.00 0.00 0.00 0.00 0.02 0.01 0.16 0.14 0.70 0.27 0.42 0.68 0.87 1.40 1.35 1.66 1.79 1.62 2.62 2.73 2.31 1.83 2.51 1.84 1.03 0.55 0.44 0.32 0.21 0.36
0.01 0.01 0.00 0.00 0.00 0.00 0.00 0.01 0.00 0.00 0.00 0.00 0.00 0.00 0.00 0.00 0.00 0.00 0.00 0.00 0.00 0.00 0.00 0.00 0.00 0.00 0.00 0.00 0.00 0.00 0.00 0.00 0.00 0.00 0.00 0.00 0.00 0.00 0.00 0.00 0.00 0.00 0.00 0.00 0.00 0.00 0.00 0.00 0.00 0.00 0.00 0.00 0.00 0.00 0.00 0.00 0.00 0.01 0.00 0.00 0.00 0.00 0.00 0.02 0.02 0.09 0.25 0.28 0.07 0.11 0.48 0.78 0.88 0.51 0.71 1.66 1.91 1.24 1.22 1.03 0.92 1.19 0.76 0.46 0.23 0.33 0.31 0.32
0.01 0.01 0.00 0.00 0.01 0.00 0.01 0.00 0.00 0.00 0.00 0.00 0.00 0.00 0.00 0.00 0.00 0.00 0.00 0.00 0.00 0.00 0.00 0.00 0.00 0.00 0.00 0.00 0.00 0.00 0.00 0.00 0.00 0.00 0.00 0.00 0.00 0.00 0.00 0.00 0.00 0.00 0.00 0.00 0.00 0.00 0.00 0.00 0.00 0.00 0.00 0.00 0.00 0.00 0.00 0.00 0.00 0.00 0.02 0.00 0.00 0.00 0.00 0.01 0.01 0.01 0.10 0.13 0.28 0.06 0.36 1.05 0.52 0.74 0.42 1.00 1.39 0.96 1.44 1.35 1.39 1.04 0.86 0.60 0.19 0.21 0.22 0.32
0.00 0.00 0.01 0.01 0.01 0.01 0.00 0.00 0.00 0.00 0.00 0.00 0.00 0.00 0.00 0.00 0.00 0.00 0.00 0.03 0.03 0.00 0.00 0.00 0.00 0.00 0.00 0.00 0.00 0.00 0.01 0.00 0.00 0.00 0.00 0.00 0.00 0.00 0.00 0.00 0.00 0.00 0.00 0.00 0.00 0.00 0.00 0.00 0.00 0.00 0.00 0.00 0.00 0.01 0.00 0.00 0.00 0.00 0.00 0.01 0.00 0.00 0.02 0.00 0.00 0.00 0.03 0.00 0.05 0.03 0.02 0.34 0.72 0.68 0.73 1.05 1.52 1.84 1.72 1.36 1.56 0.96 0.80 1.07 0.33 0.50 0.47 0.23
0.00 0.00 0.00 0.00 0.00 0.02 0.00 0.00 0.00 0.00 0.00 0.00 0.00 0.00 0.00 0.00 0.00 0.00 0.00 0.04 0.00 0.00 0.00 0.00 0.00 0.00 0.00 0.00 0.00 0.00 0.00 0.00 0.01 0.00 0.00 0.00 0.00 0.00 0.00 0.00 0.00 0.00 0.00 0.00 0.00 0.00 0.00 0.00 0.00 0.00 0.00 0.00 0.00 0.00 0.00 0.00 0.00 0.01 0.00 0.00 0.00 0.00 0.00 0.00 0.01 0.01 0.01 0.01 0.16 0.04 0.02 0.11 0.34 0.87 0.64 1.08 1.46 0.98 1.66 1.22 1.06 1.03 0.77 0.82 0.74 0.47 0.96 0.66
0.00 0.00 0.00 0.00 0.00 0.00 0.00 0.00 0.00 0.00 0.00 0.00 0.00 0.00 0.00 0.00 0.00 0.00 0.03 0.16 0.00 0.00 0.00 0.00 0.00 0.00 0.00 0.00 0.00 0.00 0.00 0.00 0.00 0.00 0.00 0.00 0.00 0.00 0.00 0.00 0.00 0.00 0.00 0.00 0.00 0.00 0.00 0.00 0.00 0.00 0.00 0.00 0.00 0.00 0.00 0.00 0.00 0.00 0.00 0.00 0.00 0.00 0.01 0.00 0.02 0.04 0.17 0.03 0.04 0.02 0.03 0.15 0.61 1.13 1.18 1.22 1.22 0.95 1.01 1.21 0.89 0.94 0.79 0.99 1.01 0.92 0.66 0.34
0.01 0.00 0.01 0.01 0.00 0.00 0.00 0.00 0.00 0.00 0.00 0.00 0.00 0.00 0.00 0.00 0.00 0.03 0.03 0.05 0.00 0.00 0.00 0.00 0.00 0.00 0.00 0.00 0.00 0.00 0.00 0.00 0.00 0.00 0.00 0.00 0.00 0.00 0.00 0.00 0.00 0.00 0.00 0.00 0.00 0.00 0.00 0.00 0.00 0.00 0.00 0.00 0.00 0.00 0.00 0.00 0.00 0.00 0.00 0.01 0.00 0.00 0.01 0.06 0.36 0.41 0.24 0.06 0.01 0.01 0.02 0.05 0.42 0.82 0.82 0.45 0.60 0.66 0.68 0.90 0.96 1.14 0.77 0.44 0.80 1.34 0.40 0.40
0.00 0.00 0.01 0.01 0.00 0.00 0.00 0.00 0.00 0.00 0.00 0.00 0.00 0.00 0.00 0.00 0.04 0.13 0.06 0.00 0.00 0.00 0.00 0.00 0.00 0.00 0.00 0.00 0.00 0.00 0.00 0.00 0.00 0.00 0.00 0.00 0.00 0.00 0.00 0.00 0.00 0.00 0.00 0.00 0.00 0.00 0.00 0.00 0.00 0.00 0.00 0.00 0.00 0.00 0.00 0.00 0.00 0.00 0.00 0.00 0.01 0.03 0.23 0.59 0.63 0.12 0.12 0.02 0.03 0.02 0.01 0.03 0.30 1.11 0.78 0.38 0.41 0.35 0.50 0.59 0.45 0.75 0.75 0.73 0.47 0.53 0.50 0.46
0.00 0.00 0.00 0.01 0.00 0.01 0.00 0.00 0.00 0.00 0.00 0.00 0.00 0.00 0.00 0.05 0.02 0.11 0.07 0.00 0.03 0.00 0.01 0.00 0.00 0.00 0.00 0.00 0.00 0.00 0.00 0.00 0.00 0.00 0.00 0.00 0.00 0.00 0.00 0.00 0.00 0.00 0.01 0.00 0.00 0.00 0.00 0.00 0.00 0.00 0.00 0.00 0.00 0.00 0.00 0.00 0.00 0.00 0.01 0.00 0.00 0.11 0.11 0.18 0.13 0.17 0.02 0.06 0.21 0.02 0.01 0.08 0.30 0.65 0.84 0.12 0.22 0.26 0.46 0.73 0.66 0.58 0.62 0.69 0.67 0.51 0.46 0.82
0.00 0.00 0.00 0.00 0.00 0.00 0.00 0.00 0.00 0.00 0.00 0.00 0.00 0.00 0.05 0.19 0.17 0.07 0.02 0.00 0.01 0.00 0.00 0.00 0.01 0.00 0.00 0.00 0.00 0.00 0.00 0.00 0.00 0.00 0.00 0.00 0.00 0.00 0.00 0.00 0.00 0.00 0.07 0.01 0.00 0.00 0.00 0.00 0.00 0.00 0.00 0.00 0.00 0.00 0.00 0.00 0.00 0.00 0.01 0.05 0.00 0.01 0.09 0.07 0.03 0.01 0.06 0.00 0.01 0.01 0.02 0.12 0.37 0.72 0.53 0.42 0.28 0.19 0.53 0.68 0.47 0.15 0.18 0.50 0.48 0.56 0.56 0.66
0.00 0.00 0.00 0.00 0.00 0.00 0.00 0.00 0.00 0.00 0.00 0.00 0.00 0.00 0.03 0.07 0.09 0.01 0.01 0.00 0.00 0.00 0.00 0.01 0.00 0.00 0.00 0.01 0.00 0.00 0.03 0.00 0.00 0.00 0.00 0.01 0.00 0.00 0.00 0.00 0.00 0.00 0.00 0.02 0.04 0.00 0.02 0.00 0.00 0.00 0.00 0.00 0.00 0.00 0.00 0.00 0.00 0.00 0.00 0.00 0.04 0.02 0.01 0.00 0.01 0.03 0.02 0.08 0.10 0.03 0.03 0.61 0.31 1.01 0.26 0.22 0.39 0.37 0.19 0.60 0.62 0.28 0.12 0.18 0.27 0.23 0.74 0.73
0.00 0.00 0.00 0.00 0.00 0.00 0.00 0.00 0.00 0.00 0.00 0.00 0.00 0.14 0.12 0.08 0.03 0.07 0.05 0.00 0.00 0.00 0.00 0.00 0.00 0.00 0.00 0.00 0.00 0.00 0.00 0.00 0.00 0.00 0.00 0.01 0.04 0.00 0.00 0.00 0.00 0.00 0.00 0.00 0.00 0.00 0.00 0.00 0.00 0.00 0.00 0.00 0.00 0.00 0.00 0.00 0.00 0.00 0.00 0.00 0.01 0.03 0.01 0.02 0.05 0.01 0.01 0.05 0.10 0.06 0.13 0.14 0.64 0.16 0.36 0.25 0.15 0.20 0.40 0.85 0.35 0.14 0.19 0.30 0.33 0.22 0.31 0.77
0.00 0.00 0.00 0.00 0.00 0.00 0.00 0.00 0.00 0.00 0.00 0.00 0.06 0.13 0.17 0.03 0.03 0.00 0.00 0.00 0.00 0.01 0.00 0.00 0.00 0.00 0.00 0.00 0.00 0.00 0.00 0.00 0.00 0.00 0.00 0.00 0.00 0.02 0.00 0.00 0.01 0.00 0.00 0.00 0.03 0.03 0.00 0.01 0.00 0.00 0.00 0.00 0.00 0.00 0.00 0.00 0.01 0.00 0.00 0.00 0.01 0.02 0.02 0.08 0.01 0.01 0.01 0.00 0.01 0.01 0.06 0.19 0.09 0.17 0.37 0.39 0.35 0.37 0.44 0.39 0.39 0.20 0.26 0.24 0.22 0.32 0.54 0.67
0.00 0.00 0.00 0.00 0.00 0.00 0.00 0.00 0.00 0.00 0.00 0.03 0.08 0.26 0.03 0.00 0.00 0.00 0.00 0.00 0.00 0.00 0.00 0.00 0.01 0.01 0.00 0.00 0.00 0.00 0.00 0.00 0.01 0.00 0.03 0.00 0.00 0.00 0.00 0.00 0.00 0.00 0.00 0.00 0.00 0.00 0.00 0.02 0.00 0.00 0.00 0.00 0.00 0.00 0.00 0.00 0.00 0.00 0.00 0.00 0.00 0.00 0.01 0.04 0.07 0.08 0.03 0.04 0.09 0.06 0.12 0.16 0.14 0.82 0.69 0.57 0.50 0.26 0.33 0.25 0.17 0.48 0.37 0.62 0.40 0.44 0.32 0.38
0.00 0.00 0.00 0.00 0.00 0.00 0.00 0.00 0.00 0.00 0.01 0.10 0.08 0.01 0.00 0.01 0.00 0.00 0.00 0.00 0.00 0.00 0.00 0.07 0.00 0.00 0.01 0.00 0.02 0.01 0.00 0.01 0.00 0.00 0.02 0.00 0.01 0.00 0.00 0.00 0.00 0.00 0.00 0.00 0.00 0.00 0.00 0.01 0.00 0.00 0.00 0.00 0.00 0.00 0.00 0.00 0.00 0.00 0.01 0.00 0.00 0.03 0.09 0.01 0.03 0.13 0.03 0.00 0.07 0.22 0.22 0.15 0.10 0.52 0.21 0.14 0.19 0.12 0.17 0.19 0.30 0.46 0.79 0.43 0.47 0.57 0.36 0.22
0.00 0.00 0.00 0.00 0.00 0.00 0.00 0.00 0.00 0.00 0.06 0.16 0.12 0.18 0.02 0.03 0.00 0.00 0.00 0.00 0.00 0.00 0.01 0.04 0.04 0.00 0.00 0.00 0.00 0.01 0.01 0.03 0.00 0.01 0.01 0.01 0.01 0.00 0.00 0.00 0.00 0.00 0.00 0.00 0.00 0.00 0.00 0.01 0.01 0.00 0.00 0.00 0.00 0.00 0.01 0.01 0.00 0.00 0.00 0.00 0.00 0.00 0.00 0.02 0.01 0.08 0.02 0.11 0.01 0.48 0.45 0.49 0.42 0.59 0.42 0.29 0.40 0.34 0.46 0.32 0.41 0.44 0.78 0.37 0.28 0.39 0.53 0.45
0.00 0.00 0.00 0.00 0.00 0.00 0.00 0.00 0.00 0.01 0.07 0.23 0.13 0.05 0.02 0.02 0.00 0.00 0.00 0.00 0.00 0.00 0.06 0.04 0.00 0.01 0.00 0.01 0.00 0.01 0.01 0.02 0.01 0.01 0.00 0.02 0.00 0.00 0.00 0.00 0.00 0.00 0.00 0.00 0.00 0.00 0.00 0.01 0.02 0.01 0.00 0.00 0.00 0.00 0.00 0.00 0.02 0.00 0.00 0.00 0.00 0.00 0.00 0.00 0.00 0.02 0.05 0.07 0.03 0.07 0.33 0.46 0.98 1.13 0.92 0.89 1.24 0.63 0.82 0.48 0.44 0.72 0.56 0.51 0.48 0.33 0.22 0.31
0.00 0.00 0.01 0.00 0.00 0.00 0.00 0.00 0.03 0.04 0.06 0.16 0.02 0.06 0.01 0.01 0.00 0.00 0.00 0.00 0.02 0.00 0.00 0.00 0.00 0.02 0.00 0.00 0.00 0.00 0.01 0.02 0.01 0.03 0.01 0.00 0.00 0.02 0.00 0.00 0.00 0.00 0.00 0.00 0.00 0.00 0.02 0.00 0.05 0.01 0.00 0.00 0.01 0.00 0.00 0.00 0.00 0.00 0.00 0.01 0.00 0.00 0.03 0.01 0.02 0.00 0.00 0.01 0.02 0.04 0.15 0.31 0.63 0.45 0.68 1.37 0.72 0.80 1.02 0.46 0.66 0.79 0.57 0.54 0.59 0.44 0.36 0.73
0.00 0.05 0.00 0.00 0.00 0.00 0.00 0.02 0.03 0.01 0.02 0.07 0.10 0.01 0.01 0.01 0.01 0.01 0.01 0.02 0.03 0.07 0.01 0.00 0.00 0.00 0.00 0.01 0.00 0.00 0.01 0.01 0.01 0.03 0.02 0.03 0.00 0.00 0.00 0.00 0.00 0.00 0.00 0.00 0.00 0.01 0.00 0.01 0.00 0.01 0.00 0.01 0.00 0.00 0.00 0.00 0.00 0.00 0.00 0.00 0.00 0.01 0.00 0.02 0.01 0.01 0.01 0.02 0.00 0.11 0.07 0.85 0.32 0.39 0.27 0.72 0.46 0.57 0.58 0.57 0.75 1.21 1.12 1.07 0.68 1.08 1.35 1.17
0.00 0.01 0.00 0.00 0.00 0.00 0.00 0.04 0.01 0.02 0.03 0.03 0.00 0.04 0.01 0.05 0.03 0.04 0.02 0.02 0.03 0.07 0.02 0.01 0.02 0.02 0.00 0.00 0.00 0.00 0.00 0.02 0.02 0.03 0.04 0.03 0.02 0.00 0.00 0.00 0.00 0.00 0.00 0.00 0.00 0.00 0.00 0.03 0.02 0.00 0.00 0.00 0.01 0.00 0.00 0.00 0.00 0.01 0.00 0.00 0.00 0.00 0.00 0.01 0.01 0.01 0.05 0.10 0.04 0.07 0.14 0.68 0.42 0.34 1.13 0.92 1.30 1.21 0.60 1.11 0.91 1.02 1.57 1.07 0.83 1.23 1.46 1.59
0.00 0.00 0.00 0.00 0.00 0.00 0.02 0.05 0.02 0.00 0.01 0.01 0.03 0.03 0.01 0.04 0.02 0.06 0.09 0.10 0.11 0.05 0.06 0.04 0.01 0.03 0.02 0.01 0.01 0.01 0.05 0.04 0.04 0.03 0.05 0.05 0.04 0.01 0.00 0.00 0.00 0.00 0.00 0.01 0.01 0.02 0.01 0.01 0.01 0.02 0.05 0.05 0.01 0.00 0.00 0.00 0.00 0.00 0.01 0.01 0.00 0.00 0.00 0.00 0.00 0.02 0.03 0.01 0.02 0.08 0.25 0.45 0.51 0.21 0.33 0.47 0.98 0.89 0.84 0.58 0.39 0.77 0.86 1.07 0.98 1.08 1.10 1.82
0.02 0.00 0.00 0.00 0.00 0.00 0.07 0.02 0.02 0.03 0.01 0.01 0.01 0.03 0.06 0.08 0.06 0.03 0.03 0.09 0.05 0.07 0.06 0.12 0.09 0.04 0.05 0.08 0.04 0.02 0.03 0.04 0.07 0.06 0.05 0.07 0.06 0.03 0.01 0.01 0.01 0.00 0.00 0.00 0.00 0.00 0.01 0.03 0.05 0.09 0.12 0.13 0.37 0.28 0.23 0.18 0.03 0.02 0.00 0.00 0.01 0.01 0.01 0.01 0.04 0.01 0.01 0.04 0.01 0.04 0.30 0.70 0.57 0.37 0.49 0.68 0.74 0.39 0.55 0.59 0.55 0.94 0.79 0.61 1.00 1.27 1.16 1.49
0.01 0.06 0.00 0.00 0.00 0.05 0.02 0.00 0.03 0.02 0.05 0.03 0.02 0.02 0.01 0.08 0.10 0.07 0.04 0.04 0.08 0.10 0.06 0.09 0.06 0.04 0.14 0.07 0.09 0.05 0.04 0.04 0.10 0.17 0.11 0.11 0.09 0.06 0.04 0.02 0.02 0.01 0.01 0.00 0.01 0.00 0.00 0.00 0.00 0.00 0.11 0.10 0.34 0.17 0.02 0.00 0.03 0.08 0.03 0.00 0.01 0.00 0.01 0.01 0.02 0.06 0.06 0.27 0.13 0.17 0.11 0.42 0.63 0.73 0.62 0.45 1.07 0.73 0.46 0.88 0.51 0.51 0.75 0.36 0.67 1.17 0.80 1.39
0.16 0.08 0.01 0.03 0.03 0.09 0.01 0.05 0.05 0.06 0.10 0.10 0.06 0.04 0.05 0.04 0.04 0.07 0.09 0.13 0.21 0.11 0.08 0.12 0.20 0.11 0.18 0.12 0.21 0.06 0.03 0.05 0.06 0.09 0.14 0.20 0.13 0.09 0.06 0.04 0.03 0.01 0.03 0.01 0.01 0.00 0.00 0.00 0.00 0.00 0.01 0.05 0.01 0.02 0.01 0.00 0.04 0.01 0.02 0.02 0.02 0.01 0.03 0.05 0.03 0.21 0.16 0.08 0.11 0.40 0.28 0.31 0.39 0.47 0.45 0.51 0.56 0.42 0.32 0.42 0.25 0.34 0.57 0.85 0.83 1.25 1.55 1.36
0.26 0.09 0.05 0.43 0.16 0.08 0.06 0.08 0.07 0.09 0.11 0.10 0.10 0.17 0.05 0.05 0.03 0.06 0.06 0.10 0.14 0.37 0.20 0.34 0.20 0.11 0.20 0.15 0.06 0.20 0.12 0.06 0.07 0.26 0.18 0.17 0.09 0.10 0.10 0.10 0.05 0.06 0.03 0.01 0.00 0.02 0.03 0.02 0.01 0.01 0.01 0.03 0.03 0.01 0.02 0.01 0.01 0.01 0.01 0.01 0.01 0.00 0.04 0.02 0.01 0.02 0.15 0.19 0.43 0.49 0.27 0.30 0.44 0.25 0.17 0.36 0.64 0.38 0.34 0.51 0.35 0.55 0.49 0.43 1.05 1.14 0.57 0.91
0.10 0.08 0.05 0.12 0.21 0.11 0.10 0.09 0.04 0.11 0.06 0.06 0.09 0.10 0.12 0.05 0.05 0.03 0.02 0.08 0.11 0.18 0.21 0.25 0.22 0.18 0.10 0.09 0.13 0.23 0.15 0.16 0.23 0.23 0.21 0.21 0.15 0.16 0.21 0.19 0.10 0.06 0.09 0.03 0.02 0.00 0.01 0.03 0.00 0.00 0.01 0.01 0.01 0.01 0.00 0.02 0.11 0.05 0.05 0.00 0.01 0.01 0.00 0.01 0.01 0.03 0.10 0.13 0.17 0.34 0.59 0.40 0.75 0.53 0.26 0.37 0.35 0.35 0.30 0.42 0.41 0.23 0.59 0.44 0.98 0.95 0.81 0.78
0.22 0.34 0.51 0.17 0.19 0.11 0.10 0.09 0.10 0.04 0.07 0.17 0.14 0.08 0.15 0.12 0.08 0.04 0.03 0.21 0.17 0.34 0.22 0.20 0.16 0.23 0.17 0.16 0.14 0.20 0.16 0.07 0.18 0.15 0.10 0.09 0.10 0.11 0.18 0.16 0.24 0.16 0.08 0.07 0.02 0.07 0.00 0.08 0.00 0.02 0.04 0.02 0.03 0.02 0.01 0.00 0.02 0.08 0.11 0.15 0.02 0.03 0.01 0.00 0.00 0.02 0.14 0.28 0.33 0.29 0.30 0.69 0.58 0.68 0.91 0.58 0.42 0.50 0.27 0.31 0.70 0.76 0.54 0.56 0.50 0.78 0.75 0.95
0.38 0.49 0.90 0.75 0.43 0.14 0.24 0.09 0.20 0.14 0.15 0.11 0.19 0.20 0.09 0.13 0.08 0.05 0.04 0.08 0.14 0.32 0.22 0.13 0.13 0.10 0.09 0.11 0.12 0.18 0.15 0.04 0.03 0.04 0.04 0.04 0.13 0.17 0.21 0.40 0.14 0.20 0.19 0.13 0.05 0.08 0.00 0.04 0.00 0.02 0.03 0.05 0.01 0.05 0.03 0.03 0.02 0.02 0.04 0.01 0.01 0.01 0.03 0.03 0.10 0.13 0.04 0.15 0.44 0.67 0.55 0.47 0.69 0.52 0.47 0.56 0.50 0.38 0.38 0.46 0.66 1.14 0.63 0.68 0.99 0.69 0.95 1.22
0.89 0.74 0.58 0.92 0.66 0.25 0.19 0.10 0.13 0.21 0.12 0.13 0.26 0.24 0.19 0.24 0.04 0.06 0.12 0.22 0.17 0.25 0.19 0.11 0.15 0.10 0.10 0.11 0.16 0.13 0.06 0.02 0.00 0.00 0.01 0.01 0.02 0.03 0.06 0.08 0.09 0.12 0.20 0.21 0.08 0.13 0.06 0.10 0.04 0.06 0.03 0.05 0.03 0.06 0.12 0.05 0.07 0.05 0.04 0.09 0.03 0.02 0.01 0.02 0.04 0.06 0.18 0.06 0.14 0.40 0.61 0.41 0.55 0.68 0.67 0.51 0.39 0.65 0.47 0.56 0.93 1.13 0.92 0.91 0.77 0.87 0.54 0.43